Fire Weather Observation
Issued by NWS Grand Junction, CO

Home | Current Version | Previous Version | Graphics & Text | Print | Product List | Glossary On
Versions: 1 2 3 4 5 6 7 8 9 10 11 12 13 14 15 16 17 18 19 20 21 22 23 24 25 26 27 28 29 30 31 32 33 34 35 36 37 38 39 40 41 42 43 44 45 46 47 48 49 50
000
SHUS65 KGJT 112014
FWOGJT

DAILY FIRE WEATHER OBSERVATION
NATIONAL WEATHER SERVICE GRAND JUNCTION CO
212 PM MDT THU SEP 11 2014

STATE OF THE WEATHER (W)               0
DRY BULB TEMPERATURE                   77   DEGREES FAHRENHEIT
RELATIVE HUMIDITY (RH)                 31   PERCENT
LIGHTNING ACTIVITY LEVEL
  (LAL - MIDNIGHT TO 2 PM)             1
WIND DIRECTION                         C    DEGREES (C IF CALM)
WIND SPEED                             0    MPH
MAX TEMP (2 PM - 2 PM)                 78   DEGREES FAHRENHEIT
MIN TEMP (2 PM - 2 PM)                 50   DEGREES FAHRENHEIT
MAX RH (2 PM - 2 PM)                   86   PERCENT
MIN RH (2 PM - 2 PM)                   31   PERCENT
PCPN DURATION                          0.0  HOURS
PCPN AMT (2 PM - 2 PM)                 0.0  INCHES
LAL (2 PM - 2 PM)                      1

$$

METAR KGJT 111953Z VRB04KT 10SM CLR 25/07 A3008 RMK AO2 SLP129
      T02500067



USA.gov is the U.S. government's official web portal to all federal, state and local government web resources and services.